Regional Weather Roundup
Issued by NWS

Home | Current Version | Previous Version | Graphics & Text | Print | Product List | Glossary On
Versions: 1 2 3 4 5 6 7 8 9 10 11 12 13 14 15 16 17 18 19 20 21 22 23 24 25 26 27 28 29 30 31 32 33 34 35 36 37 38 39 40 41 42 43 44 45 46 47 48 49 50
445
ASUS43 KBIS 280702
RWRND

NORTH DAKOTA REGIONAL WEATHER ROUNDUP
NATIONAL WEATHER SERVICE BISMARCK ND
200 AM CDT WED SEP 28 2016

NOTE: "FAIR" INDICATES FEW OR NO CLOUDS BELOW 12,000 FEET WITH NO
SIGNIFICANT WEATHER AND/OR OBSTRUCTIONS TO VISIBILITY.


NDZ001>003-009>011-017-280800-
NORTHWEST NORTH DAKOTA

CITY           SKY/WX    TMP DP  RH WIND       PRES   REMARKS
WILLISTON      CLEAR     51  46  83 NW6       30.04R
MINOT          CLEAR     46  38  73 E3        30.07R
MINOT AFB      CLEAR     45  37  75 SE6       30.06R
$$

NDZ018>021-031>035-040>046-280800-
SOUTHWEST NORTH DAKOTA

CITY           SKY/WX    TMP DP  RH WIND       PRES   REMARKS
BISMARCK       CLOUDY    43  41  93 CALM      30.08R
DICKINSON      CLEAR     51  43  74 S10       30.05R
GARRISON         N/A     45  42  89 E5        30.07R
HETTINGER ARPT CLEAR     50  44  80 CALM      30.09R
$$

NDZ004>008-012>016-024-026-027-054-280800-
NORTHEAST NORTH DAKOTA

CITY           SKY/WX    TMP DP  RH WIND       PRES   REMARKS
GRAND FORKS    CLOUDY    46  40  79 N6        30.09R
GRND FRKS AFB  CLOUDY    48  42  80 NE3       30.10R
DEVILS LAKE    CLOUDY    42  42 100 E5        30.10R
$$

NDZ022-023-025-028>030-036>039-047>053-280800-
SOUTHEAST NORTH DAKOTA

CITY           SKY/WX    TMP DP  RH WIND       PRES   REMARKS
FARGO          CLOUDY    43  39  86 N7        30.07R
JAMESTOWN      CLOUDY    39  37  92 NW5       30.09R
$$





USA.gov is the U.S. government's official web portal to all federal, state and local government web resources and services.